Regional Weather Roundup
Issued by NWS

Home | Current Version | Previous Version | Text Only | Print | Product List | Glossary Off
Versions: 1 2 3 4 5 6 7 8 9 10 11 12 13 14 15 16 17 18 19 20 21 22 23 24 25 26 27 28 29 30 31 32 33 34 35 36 37 38 39 40 41 42 43 44 45 46 47 48 49 50

977
ASUS43 KLMK 270002
RWRKY
KENTUCKY REGIONAL WEATHER ROUNDUP
NATIONAL WEATHER SERVICE LOUISVILLE KY
800 PM EDT SUN MAR 26 2017

NOTE "FAIR" INDICATES FEW OR NO CLOUDS BELOW 12,000 FEET
WITH NO SIGNIFICANT WEATHER AND/OR OBSTRUCTIONS TO VISIBILITY.

KYZ001>023-026-027-061>063-070>075-270100-
WESTERN AND SOUTH CENTRAL KENTUCKY

CITY           SKY/WX    TMP DP  RH WIND       PRES   REMARKS
PADUCAH        CLOUDY    62  51  67 W5        29.95R
HENDERSON      CLOUDY    61  48  63 SW8       29.95R
OWENSBORO      CLEAR     61  50  67 W10       29.97R
HOPKINSVILLE   PTCLDY    66  52  60 W8        29.96R
BOWLING GREEN  CLOUDY    70  52  52 SW7       29.96R
GLASGOW        NOT AVBL
$$

KYZ024-025-028>034-038-045-046-053-270100-
NORTH CENTRAL KENTUCKY

CITY           SKY/WX    TMP DP  RH WIND       PRES   REMARKS
LOUISVILLE/SDF MOCLDY    65  53  65 W10       29.93R
LOUISVILLE/LOU CLOUDY    65  55  70 W8        29.94R
FORT KNOX      CLOUDY    65  52  63 SW9       29.93R
$$

KYZ035>037-039>044-047>052-055>060-089>105-270100-
NORTHEAST KENTUCKY

CITY           SKY/WX    TMP DP  RH WIND       PRES   REMARKS
LEXINGTON      MOCLDY    61  54  77 S6        29.95R
COVINGTON      CLOUDY    58  56  93 W6        29.93R
FRANKFORT      MOCLDY    64  53  67 S7        29.92R
$$

KYZ054-064>069-076>088-106>120-270100-
SOUTHEAST KENTUCKY

CITY           SKY/WX    TMP DP  RH WIND       PRES   REMARKS
JACKSON        CLEAR     59  56  89 SW5       29.99R
LONDON         LGT RAIN  62  57  83 S5        29.99R
SOMERSET       NOT AVBL
MIDDLESBORO    PTCLDY    68  54  61 SW6       30.01R
MONTICELLO     MOCLDY    65  55  70 SW9G17    30.00R
$$





USA.gov is the U.S. government's official web portal to all federal, state and local government web resources and services.